Date String (YYYY-MM-DD hh:mm:ss) UTC,Instrument flags,Ambient pressure (hPa),Sample flow (lpm),Bypass flow (lpm),Sample temperature (°C),Ambient temperature (°C),ASC tube jacket temperature (°C),LED temperature (°C),Box temperature (°C),Sample RH (%),Span deviation,Mass concentration (μg/m³),Mass concentration (μg/m³),Mass concentration (μg/m³)
DateTimeUTC,F1_M11,P_M11,Q1_M11,Q2_M11,T1_M11,T2_M11,T3_M11,T4_M11,T5_M11,U1_M11,ZSPAN_M11,X0_M11,X2_M11,X1_M11
2021-12-16 04:00:00,,0817.2,5.01,0.00,21.3,20.8,00.0,30.4,22.7,07.6,0000.0,0002.10,0000.79,0000.33
2021-12-16 04:01:00,,0817.2,4.99,0.00,21.2,20.6,00.0,30.4,22.7,07.7,0000.0,0002.15,0000.84,0000.33
2021-12-16 04:02:00,,0817.2,4.99,0.00,21.1,20.3,00.0,30.4,22.5,07.7,0000.0,0002.23,0000.85,0000.34
2021-12-16 04:03:00,,0817.2,5.01,0.00,21.0,20.1,00.0,30.3,22.4,07.8,0000.0,0002.21,0000.85,0000.34
2021-12-16 04:04:00,,0817.0,5.00,0.00,21.0,20.4,00.0,30.3,22.5,07.8,0000.0,0002.14,0000.82,0000.33
2021-12-16 04:05:00,,0816.9,4.99,0.00,21.2,21.4,00.0,30.3,22.8,07.7,0000.0,0003.35,0000.81,0000.33
2021-12-16 04:06:00,,0817.0,5.01,0.00,21.3,22.4,00.0,30.4,23.2,07.6,0000.0,0003.33,0000.81,0000.32
2021-12-16 04:07:00,,0817.0,5.00,0.00,21.5,22.9,00.0,30.4,23.5,07.5,0000.0,0003.28,0000.81,0000.33
2021-12-16 04:08:00,,0817.0,5.00,0.00,21.5,22.2,00.0,30.4,23.3,07.5,0000.0,0003.23,0000.79,0000.33
2021-12-16 04:09:00,,0816.6,5.00,0.00,21.5,21.8,00.0,30.4,23.1,07.5,0000.0,0003.14,0000.79,0000.33
2021-12-16 04:10:00,,0816.6,4.99,0.00,21.4,21.4,00.0,30.4,23.0,07.4,0000.0,0003.71,0000.86,0000.34
2021-12-16 04:11:00,,0816.8,5.02,0.00,21.4,21.1,00.0,30.4,23.0,07.3,0000.0,0004.74,0000.92,0000.34
2021-12-16 04:12:00,,0816.8,4.99,0.00,21.4,20.8,00.0,30.4,22.9,07.4,0000.0,0005.19,0000.98,0000.35
2021-12-16 04:13:00,,0817.0,5.00,0.00,21.3,20.6,00.0,30.4,22.8,07.4,0000.0,0005.13,0000.96,0000.34
2021-12-16 04:14:00,,0817.0,5.03,0.00,21.3,20.5,00.0,30.4,22.8,07.5,0000.0,0005.50,0000.97,0000.35
2021-12-16 04:15:00,,0816.9,4.99,0.00,21.3,21.0,00.0,30.4,22.9,07.5,0000.0,0006.09,0000.99,0000.35
2021-12-16 04:16:00,,0817.0,5.00,0.00,21.5,21.9,00.0,30.4,23.2,07.4,0000.0,0005.41,0001.07,0000.36
2021-12-16 04:17:00,,0817.0,5.00,0.00,21.6,22.7,00.0,30.5,23.6,07.4,0000.0,0005.27,0001.10,0000.36
2021-12-16 04:18:00,,0817.1,5.00,0.00,21.7,22.7,00.0,30.5,23.7,07.2,0000.0,0005.43,0001.13,0000.36
2021-12-16 04:19:00,,0817.4,5.00,0.00,21.7,22.0,00.0,30.5,23.4,07.2,0000.0,0006.19,0001.20,0000.37
2021-12-16 04:20:00,,0817.4,5.00,0.00,21.6,21.4,00.0,30.5,23.1,07.3,0000.0,0006.28,0001.22,0000.37
2021-12-16 04:21:00,,0817.4,5.02,0.00,21.5,21.0,00.0,30.5,22.9,07.4,0000.0,0005.63,0001.13,0000.36
2021-12-16 04:22:00,,0817.5,5.00,0.00,21.4,20.8,00.0,30.5,22.8,07.3,0000.0,0004.54,0001.05,0000.36
2021-12-16 04:23:00,,0817.7,5.01,0.00,21.3,20.6,00.0,30.5,22.7,07.3,0000.0,0004.31,0001.03,0000.37
2021-12-16 04:24:00,,0817.6,5.00,0.00,21.3,20.4,00.0,30.4,22.6,07.4,0000.0,0004.26,0001.02,0000.37
2021-12-16 04:25:00,,0817.5,5.01,0.00,21.2,20.3,00.0,30.4,22.6,07.4,0000.0,0003.69,0000.98,0000.36
2021-12-16 04:26:00,,0818.0,4.99,0.00,21.2,20.7,00.0,30.4,22.7,07.4,0000.0,0003.23,0000.97,0000.35
2021-12-16 04:27:00,,0818.1,5.00,0.00,21.4,21.7,00.0,30.4,23.1,07.4,0000.0,0003.20,0000.98,0000.36
2021-12-16 04:28:00,,0818.2,5.01,0.00,21.5,22.6,00.0,30.5,23.4,07.3,0000.0,0003.17,0000.95,0000.36
2021-12-16 04:29:00,,0818.4,4.99,0.00,21.7,23.0,00.0,30.5,23.6,07.2,0000.0,0002.88,0000.85,0000.35
2021-12-16 04:30:00,,0818.3,5.00,0.00,21.7,22.5,00.0,30.5,23.5,07.2,0000.0,0002.12,0000.80,0000.34
2021-12-16 04:31:00,,0818.3,4.99,0.00,21.6,22.0,00.0,30.5,23.3,07.2,0000.0,0002.04,0000.76,0000.33
2021-12-16 04:32:00,,0818.6,5.00,0.00,21.6,21.7,00.0,30.6,23.2,07.1,0000.0,0002.03,0000.76,0000.32
2021-12-16 04:33:00,,0818.7,5.00,0.00,21.6,21.3,00.0,30.5,23.1,07.3,0000.0,0002.00,0000.75,0000.32
2021-12-16 04:34:00,,0818.7,5.00,0.00,21.5,21.0,00.0,30.5,23.0,07.3,0000.0,0001.83,0000.71,0000.31
2021-12-16 04:35:00,,0818.6,5.01,0.00,21.4,20.8,00.0,30.5,22.8,07.4,0000.0,0001.80,0000.69,0000.30
2021-12-16 04:36:00,,0818.7,5.00,0.00,21.3,20.6,00.0,30.5,22.7,07.4,0000.0,0001.87,0000.71,0000.31
2021-12-16 04:37:00,,0818.8,5.00,0.00,21.3,20.5,00.0,30.5,22.6,07.4,0000.0,0001.80,0000.68,0000.30
2021-12-16 04:38:00,,0818.9,5.01,0.00,21.3,21.1,00.0,30.5,22.8,07.4,0000.0,0001.51,0000.59,0000.29
2021-12-16 04:39:00,,0818.9,5.01,0.00,21.4,22.0,00.0,30.5,23.2,07.4,0000.0,0001.38,0000.57,0000.29
2021-12-16 04:40:00,,0819.0,4.99,0.00,21.6,22.8,00.0,30.5,23.5,07.3,0000.0,0001.29,0000.55,0000.29
2021-12-16 04:41:00,,0818.8,4.99,0.00,21.8,22.9,00.0,30.6,23.6,07.3,0000.0,0001.25,0000.53,0000.29
2021-12-16 04:42:00,,0818.9,5.00,0.00,21.7,22.4,00.0,30.6,23.5,07.2,0000.0,0001.21,0000.55,0000.29
2021-12-16 04:43:00,,0819.0,5.00,0.00,21.7,22.0,00.0,30.6,23.3,07.2,0000.0,0001.17,0000.52,0000.29
2021-12-16 04:44:00,,0818.9,5.02,0.00,21.6,21.6,00.0,30.6,23.1,07.2,0000.0,0001.13,0000.51,0000.28
2021-12-16 04:45:00,,0818.8,5.01,0.00,21.5,21.3,00.0,30.6,23.0,07.2,0000.0,0001.09,0000.51,0000.28
2021-12-16 04:46:00,,0818.8,4.99,0.00,21.5,21.0,00.0,30.6,22.9,07.3,0000.0,0001.04,0000.50,0000.28
2021-12-16 04:47:00,,0818.9,5.01,0.00,21.4,20.8,00.0,30.6,22.8,07.3,0000.0,0001.01,0000.50,0000.27
2021-12-16 04:48:00,,0818.9,5.00,0.00,21.3,20.6,00.0,30.5,22.7,07.3,0000.0,0000.99,0000.48,0000.27
2021-12-16 04:49:00,,0818.9,5.00,0.00,21.2,20.3,00.0,30.5,22.6,07.3,0000.0,0000.95,0000.47,0000.27
2021-12-16 04:50:00,,0818.8,5.01,0.00,21.2,20.7,00.0,30.5,22.6,07.4,0000.0,0000.90,0000.44,0000.26
2021-12-16 04:51:00,,0818.9,4.99,0.00,21.3,21.7,00.0,30.5,23.0,07.3,0000.0,0001.01,0000.44,0000.26
2021-12-16 04:52:00,,0818.9,4.99,0.00,21.5,22.6,00.0,30.5,23.4,07.3,0000.0,0001.50,0000.46,0000.26
2021-12-16 04:53:00,,0818.9,5.00,0.00,21.7,22.9,00.0,30.6,23.6,07.2,0000.0,0001.47,0000.45,0000.26
2021-12-16 04:54:00,,0818.9,5.00,0.00,21.7,22.4,00.0,30.6,23.5,07.2,0000.0,0001.43,0000.44,0000.26
2021-12-16 04:55:00,,0818.9,5.01,0.00,21.6,22.0,00.0,30.6,23.2,07.2,0000.0,0001.54,0000.45,0000.27
2021-12-16 04:56:00,,0818.9,5.00,0.00,21.6,21.7,00.0,30.6,23.1,07.3,0000.0,0001.55,0000.43,0000.26
2021-12-16 04:57:00,,0818.9,5.00,0.00,21.5,21.4,00.0,30.6,23.0,07.3,0000.0,0001.48,0000.41,0000.26
2021-12-16 04:58:00,,0818.9,4.99,0.00,21.5,21.1,00.0,30.5,22.9,07.4,0000.0,0001.61,0000.43,0000.26
2021-12-16 04:59:00,,0818.9,5.00,0.00,21.4,20.9,00.0,30.5,22.8,07.4,0000.0,0002.31,0000.46,0000.27
